Regional Weather Roundup
Issued by NWS Green Bay, WI

Home | Current Version | Previous Version | Graphics & Text | Print | Product List | Glossary Off
Versions: 1 2 3 4 5 6 7 8 9 10 11 12 13 14 15 16 17 18 19 20 21 22 23 24 25 26 27 28 29 30 31 32 33 34 35 36 37 38 39 40 41 42 43 44 45 46 47 48 49 50

209
ASUS43 KGRB 301900
RWRGRB

NORTH-CENTRAL AND NORTHEAST WISCONSIN REGIONAL WEATHER ROUNDUP
NATIONAL WEATHER SERVICE GREEN BAY WI
200 PM CDT FRI SEP 30 2016

WIZ005-009-010>012-018-019-302000-
NORTH CENTRAL WISCONSIN

CITY           SKY/WX    TMP DP  RH WIND       PRES   REMARKS
IRONWOOD       SUNNY     62  55  77 N9        30.35F
MANITOWISH WTR NOT AVBL
ARBOR VITAE    NOT AVBL
EAGLE RIVER    NOT AVBL
LAND O LAKES   NOT AVBL
RHINELANDER    MOSUNNY   68  49  50 NE10G20   30.32F
PHILLIPS       NOT AVBL
ANTIGO         NOT AVBL
TOMAHAWK       NOT AVBL
MERRILL        NOT AVBL
$$

WIZ013-073-302000-
NORTHEAST WISCONSIN

CITY           SKY/WX    TMP DP  RH WIND       PRES   REMARKS
IRON MOUNTAIN  PTSUNNY   68  49  50 NE10      30.30F
MARINETTE      CLOUDY    63  55  75 E18G24    30.28F
$$

WIZ017-030-035>037-045-302000-
CENTRAL WISCONSIN

CITY           SKY/WX    TMP DP  RH WIND       PRES   REMARKS
MEDFORD        NOT AVBL
WAUSAU         PTSUNNY   68  51  54 NE10      30.25F
MOSINEE        CLOUDY    66  54  63 E12G17    30.27F
MARSHFIELD     CLOUDY    70  49  47 E15       30.25F
WISC RAPIDS    CLOUDY    64  55  72 NE15G22   30.26F
STEVENS POINT  NOT AVBL
WAUPACA        NOT AVBL
SHAWANO        NOT AVBL
CLINTONVILLE   NOT AVBL
WAUTOMA        LGT RAIN  59  58  96 NE8       30.24F FOG
$$

WIZ038-039-048-051-302000-
FOX VALLEY

CITY           SKY/WX    TMP DP  RH WIND       PRES   REMARKS
NWS GREEN BAY  CLOUDY    62  60  93 NE20G26   30.24F
APPLETON       CLOUDY    59  59 100 NE12      30.23F
OSHKOSH        CLOUDY    61  57  87 NE10      30.22F
FOND DU LAC    CLOUDY    62  57  83 NE14      30.21F
$$

WIZ022-050-052-302000-
EAST CENTRAL WISCONSIN

CITY           SKY/WX    TMP DP  RH WIND       PRES   REMARKS
EPHRAIM        NOT AVBL
WASHINGTON ISL NOT AVBL
STURGEON BAY   CLOUDY    62  57  83 NE10G20   30.26F
MANITOWOC      NOT AVBL
SHEBOYGAN      CLOUDY    61  57  87 NE17      30.21F
$$

LMZ563-521-522-541>543-302000-
LAKESHORE

STATION/POSITION TIME  TEMP    WIND        PRES    VSBY  WAVE
                       AIR SEA DIR/SP/G                  HT/PER
                 (UTC) (F)     (DEG/KT/KT) (MB)    (MI)  (FT/S)
SHEBOYGAN LKSHOR 1800   61      30/ 16/ 18 1023.3F
KEWAUNEE LKSHORE 1800   62      40/ 11/ 17 1024.1F
NORTHPORT PIER   1800   62      40/ 13/ 20 1025.7F
N MID LAKE BUOY  1750   62 65   50/ 17/ 19 1025.4F         4/ 5
SISTER BAY LKSHO 1753   62      10/  8/ 12   N/A
CHAMBERS ISLAND  1800   62      30/ 18/ 22 1025.7F
MENOMINEE LKSHOR 1800   61      30/ 18/ 23 1025.0F
$$




USA.gov is the U.S. government's official web portal to all federal, state and local government web resources and services.